Flight Track Log - Related Links

Times and Time Zones

All times are in EST time to prevent confusion due to time zone crossing. See the UPS1337 flight status page for this flight to view local times or setup timezone preferences in your user account.

Time Position Orientation Groundspeed Altitude Reporting Facility
EST Latitude Longitude Course Direction KTS MPH feet Rate Location/Type
09:44PM 27.9167 -82.7000 360° North 173 199 800  Level Tampa TRACON
09:45PM 27.9500 -82.7000 360° North 179 206 2,300 2,374 Climbing Tampa TRACON
09:46PM 28.0000 -82.6667 30° Northeast 275 316 4,400 2,050 Climbing Tampa TRACON
09:47PM 28.0833 -82.6167 28° Northeast 285 328 6,400 2,600 Climbing Tampa TRACON
09:48PM 28.1500 -82.5833 24° Northeast 296 341 9,600 2,291 Climbing Tampa TRACON
09:50PM 28.3814 -82.6425 347° North 365 420 14,000 2,201 Climbing Jacksonville Center
09:51PM 28.4878 -82.6753 345° North 384 442 16,900 2,600 Climbing Jacksonville Center
09:52PM 28.5983 -82.7106 344° North 396 456 19,200 2,200 Climbing Jacksonville Center
09:53PM 28.6986 -82.7411 345° North 402 463 21,300 2,050 Climbing Jacksonville Center
09:54PM 28.8136 -82.7836 342° North 412 474 23,300 2,000 Climbing Jacksonville Center
09:55PM 28.9367 -82.8239 344° North 433 498 25,300 1,850 Climbing Jacksonville Center
09:56PM 29.0597 -82.8664 343° North 449 517 27,000 1,800 Climbing Jacksonville Center
09:57PM 29.1831 -82.9069 344° North 455 524 28,900 1,900 Climbing Jacksonville Center
09:58PM 29.3061 -82.9497 343° North 460 529 30,800 1,550 Climbing Jacksonville Center
09:59PM 29.4292 -82.9928 343° North 460 529 32,000 453 Climbing Jacksonville Center
10:05PM 30.1574 -83.3087 343° North 438 504 34,000 258 Climbing FlightAware ADS-B
10:07PM 30.3513 -83.3997 338° Northwest 448 516 34,000  Level FlightAware ADS-B (KONZ)
10:08PM 30.4582 -83.4498 338° Northwest 448 516 34,000  Level FlightAware ADS-B (KONZ)
10:08PM 30.5372 -83.4870 338° Northwest 447 514 34,000  Level FlightAware ADS-B (KONZ)
10:09PM 30.6143 -83.5235 338° Northwest 444 511 34,000  Level FlightAware ADS-B (KONZ)
10:09PM 30.6640 -83.5471 338° Northwest 444 511 34,000  Level FlightAware ADS-B (KONZ)
10:11PM 30.8393 -83.6301 338° Northwest 437 503 34,000  Level FlightAware ADS-B (KONZ)
10:12PM 30.9048 -83.6613 338° Northwest 434 499 34,000  Level FlightAware ADS-B (KONZ)
10:12PM 30.9685 -83.6916 338° Northwest 434 499 34,000  Level FlightAware ADS-B (KONZ)
10:13PM 31.0238 -83.7180 338° Northwest 433 498 34,000  Level FlightAware ADS-B (KONZ)
10:13PM 31.1056 -83.7575 338° Northwest 430 495 34,000  Level Atlanta Center
10:14PM 31.2142 -83.8106 337° Northwest 436 502 34,000  Level Atlanta Center
10:15PM 31.3269 -83.8664 337° Northwest 436 502 34,000  Level Atlanta Center
10:16PM 31.4378 -83.9197 338° Northwest 436 502 34,000  Level Atlanta Center
10:17PM 31.5547 -83.9706 340° North 436 502 34,000  Level Atlanta Center
10:18PM 31.6778 -83.9950 350° North 436 502 34,000  Level Atlanta Center
10:19PM 31.8114 -84.0267 349° North 436 502 34,000  Level Atlanta Center
10:20PM 31.9367 -84.0511 351° North 446 513 34,000  Level Atlanta Center
10:21PM 32.0575 -84.0806 348° North 446 513 34,000  Level Atlanta Center
10:22PM 32.1808 -84.1075 350° North 446 513 34,000  Level Atlanta Center
10:23PM 32.3017 -84.1347 349° North 446 513 34,000  Level Atlanta Center
10:24PM 32.4250 -84.1619 349° North 446 513 34,000  Level Atlanta Center
10:25PM 32.5458 -84.1892 349° North 446 513 34,000  Level Atlanta Center
10:26PM 32.6650 -84.2164 349° North 446 513 34,000  Level Atlanta Center
10:27PM 32.7858 -84.2464 348° North 446 513 34,000  Level Atlanta Center
10:28PM 32.8964 -84.2739 348° North 446 513 34,000  Level Atlanta Center
10:29PM 33.0153 -84.3014 349° North 444 511 34,000  Level Atlanta Center
10:30PM 33.1386 -84.3292 349° North 444 511 34,000  Level Atlanta Center
10:31PM 33.2719 -84.3594 349° North 444 511 34,000  Level Atlanta Center
10:37PM 33.9824 -84.5218 349° North 445 512 34,000  Level FlightAware ADS-B (KDZJ)
10:38PM 34.0649 -84.5419 349° North 447 514 34,000  Level FlightAware ADS-B (KDZJ)
10:38PM 34.1456 -84.5615 349° North 447 514 34,000  Level FlightAware ADS-B (KDZJ)
10:39PM 34.2272 -84.5815 349° North 445 512 34,000  Level FlightAware ADS-B (KDZJ)
10:40PM 34.3072 -84.6017 348° North 444 511 34,000  Level FlightAware ADS-B (KDZJ)
10:40PM 34.3894 -84.6225 348° North 444 511 34,000  Level FlightAware ADS-B (KDZJ)
10:41PM 34.4680 -84.6424 348° North 445 512 34,000  Level FlightAware ADS-B (KDZJ)
10:42PM 34.5504 -84.6632 348° North 448 516 34,000  Level FlightAware ADS-B (KDZJ)
10:42PM 34.6326 -84.6841 348° North 448 516 34,000  Level FlightAware ADS-B (KDZJ)
10:43PM 34.7133 -84.7045 348° North 448 516 34,000  Level FlightAware ADS-B (KDZJ)
10:44PM 34.7958 -84.7256 348° North 448 516 34,000 75 Level FlightAware ADS-B (KDZJ)
10:44PM 34.8756 -84.7459 348° North 447 514 34,100  Climbing FlightAware ADS-B (KDZJ)
10:45PM 34.9564 -84.7666 348° North 426 490 34,000 -75 Descending FlightAware ADS-B (KDZJ)
10:46PM 35.0335 -84.7864 348° North 427 491 34,000  Level FlightAware ADS-B (KDZJ)
10:46PM 35.1138 -84.8069 348° North 431 496 34,000  Level FlightAware ADS-B (KDZJ)
10:47PM 35.2086 -84.8344 348° North 430 495 34,000  Level Atlanta Center
10:48PM 35.3275 -84.8636 349° North 430 495 34,000  Level Atlanta Center
10:49PM 35.4461 -84.8928 349° North 430 495 34,000  Level Atlanta Center
10:50PM 35.5669 -84.9247 348° North 430 495 34,000 -50 Level Atlanta Center
10:51PM 35.6836 -84.9567 347° North 430 495 33,900 -500 Descending Atlanta Center
10:52PM 35.8003 -84.9886 347° North 430 495 33,000 -927 Descending Atlanta Center
10:54PM 35.9083 -85.0122 350° North 431 496 32,000 -1,065 Descending Indianapolis Center
10:55PM 36.0531 -85.0433 350° North 453 521 30,800 -1,040 Descending Indianapolis Center
11:00PM 36.7159 -85.0414 350° North 481 554 25,500 -1,061 Descending FlightAware ADS-B
11:01PM 36.8884 -85.0250 North 469 540 24,100 -2,335 Descending FlightAware ADS-B
11:03PM 37.1403 -85.0012 North 435 501 18,300 -1,862 Descending FlightAware ADS-B
11:08PM 37.6837 -84.9919 North 360 414 11,100 -1,363 Descending FlightAware ADS-B
11:09PM 37.7468 -85.0795 312° West 350 403 10,100 -492 Descending FlightAware ADS-B
11:10PM 37.8173 -85.1778 312° West 343 395 10,100 -105 Level FlightAware ADS-B
11:11PM 37.8690 -85.2492 313° West 273 314 9,900 -807 Descending FlightAware ADS-B
11:12PM 37.9225 -85.3239 312° West 263 303 8,500 -1,381 Descending FlightAware ADS-B
11:13PM 37.9714 -85.3925 312° West 253 291 7,000 -1,200 Descending FlightAware ADS-B
11:14PM 38.0176 -85.4564 313° West 246 283 6,100 -450 Descending FlightAware ADS-B
11:15PM 38.0626 -85.5197 312° West 245 282 6,100  Level FlightAware ADS-B
11:16PM 38.1113 -85.5818 315° West 265 305 6,100  Level FlightAware ADS-B
11:17PM 38.1803 -85.6149 339° North 263 303 6,100 -864 Level FlightAware ADS-B
11:18PM 38.2424 -85.6390 343° North 273 314 4,400 -1,000 Descending FlightAware ADS-B
11:19PM 38.3258 -85.6679 345° North 274 315 4,100 -615 Descending FlightAware ADS-B
11:20PM 38.3609 -85.7028 322° Northwest 176 203 3,200 -723 Descending FlightAware ADS-B
11:20PM 38.3576 -85.7401 264° West 164 189 3,100 -85 Descending FlightAware ADS-B
11:21PM 38.3345 -85.7646 220° Southwest 144 166 3,100 -278 Level FlightAware ADS-B
11:22PM 38.2936 -85.7694 220° Southwest 179 206 2,600 -565 Descending Indianapolis Center
11:24PM 38.2333 -85.7500 166° South 108 124 1,500 -623 Descending Louisville TRACON

Login

Don't have an account? Register now (free) for customized features, flight alerts, and more!